EYESAT A (AO-27)

Last updated on Sun Aug 09 2026 00:03:15 GMT+0000 (Coordinated Universal Time)

1 22825U 93061C 26220.44250211 .00000019 00000+0 24127-4 0 9998 2 22825 98.6846 287.8279 0007441 312.4370 47.6183 14.30954257714473
UTC large
Height (km)
Speed (km/s)
/
Latitude / Longitude
Inclination (degrees)
Orbital Period (minutes)
Azimuth
Elevation
Range (km)
Doppler Factor

Next 0 passes for location: London (51.5072 / 0.1276)

No passes found over London.
EYESAT A (AO-27)